Overview Statistics Trail Chart Weather Telemetry Raw packets
 

This is the latest recevied weather packets stored in our database for station/object OK1FET-14. If no packets are shown the sender has not sent any weather packets the latest 10 day(s).

<< 53 54 55 56 57 58 59 >>
Time Temp. Humidity Pressure Rain* Wind** Luminosity Snow
1788607522 19.44° C 49% 1021.6 hPa - - - -
1788607521 19.44° C 49% 1021.6 hPa - - - -
1788607521 19.44° C 49% 1021.6 hPa - - - -
1788607241 20.56° C 49% 1021.6 hPa - - - -
1788607241 20.56° C 49% 1021.6 hPa - - - -
1788607241 20.56° C 49% 1021.6 hPa - - - -
1788606960 21.11° C 48% 1021.6 hPa - - - -
1788606960 21.11° C 48% 1021.6 hPa - - - -
1788606960 21.11° C 48% 1021.6 hPa - - - -
1788606679 20° C 48% 1021.4 hPa - - - -
1788606679 20° C 48% 1021.4 hPa - - - -
1788606679 20° C 48% 1021.4 hPa - - - -
1788606679 20° C 48% 1021.4 hPa - - - -
1788606398 19.44° C 55% 1021.8 hPa - - - -
1788606398 19.44° C 55% 1021.8 hPa - - - -
1788606398 19.44° C 55% 1021.8 hPa - - - -
1788606398 19.44° C 55% 1021.8 hPa - - - -
1788606118 18.33° C 54% 1021.6 hPa - - - -
1788606118 18.33° C 54% 1021.6 hPa - - - -
1788605837 18.89° C 54% 1021.5 hPa - - - -
1788605837 18.89° C 54% 1021.5 hPa - - - -
1788605837 18.89° C 54% 1021.5 hPa - - - -
1788605556 17.78° C 54% 1021.2 hPa - - - -
1788605556 17.78° C 54% 1021.2 hPa - - - -
1788605556 17.78° C 54% 1021.2 hPa - - - -

* Rain since midnight (hover to see other rain measurements)
** Current wind speed in m/s (hover to see current wind gust speed)